Вернуться в каталог

FENGYUN 1C DEB *

LostSSO
NORAD 47011·DEBRIS·🇨🇳 China

Запущен May 10, 1999 с Taiyuan Satellite Launch Center

Loading…

Ближайшие Пролёты (ближайшие 24 часа)

TLE

УстаревшееSource: Space-Track

Эпоха: Sep 13, 2022, 21:59 UTC

1 47011U 99025FAM 22256.91653560  .00002473  00000-0  12861-2 0  9996
2 47011  99.0815 307.2918 0095945  42.0179 318.8301 14.13270184609888

Отслеживайте FENGYUN 1C DEB * в реальном времени с AllMySat

Download on the App Store